Weather History for Siemreap, Cambodia

Change the Weather History Date:

Sunday, November 16, 2014

  Actual Average Record
Temperature  
Mean Temperature 84 °F -  
Max Temperature 89 °F - - ()
Min Temperature 77 °F - - ()
Cooling Degree Days 18    
Growing Degree Days 34 (Base 50)    
Moisture  
Dew Point 74 °F    
Average Humidity 74    
Maximum Humidity 89    
Minimum Humidity 52    
Precipitation  
Precipitation 0.00 in - - ()
Sea Level Pressure  
Sea Level Pressure 29.82 in    
Wind  
Wind Speed 2 mph ()    
Max Wind Speed 8 mph    
Max Gust Speed -    
Visibility 5.9 miles    
Events      
T = Trace of Precipitation, MM = Missing Value Source: Averaged Metar Reports

Daily Weather History Graph

Daily Weather History Graph

Search for Another Location

Airport:

Trip Planner

Search our weather history database for the weather conditions in past years. The results will help you decide how hot, cold, wet, or windy it might be!

Date:

Astronomy

Nov. 16, 2014 Rise Set
Actual Time 6:04 AM ICT 5:34 PM ICT
Civil Twilight 5:41 AM ICT 5:56 PM ICT
Nautical Twilight 5:15 AM ICT 6:22 PM ICT
Astronomical Twilight 4:50 AM ICT 6:48 PM ICT
Moon 12:43 AM ICT (11/16) 1:14 PM ICT (11/16)
Length of Visible Light 12h 15m
Length of Day
11h 30m
Waning Crescent, 35% of the Moon is Illuminated
Nov 16
Waning Crescent
Nov 22
New
Nov 29
First Quarter
Dec 6
Full
Dec 14
Last Quarter

Hourly Weather History & Observations

Time (ICT) Temp. Heat Index Dew Point Humidity Pressure Visibility Wind Dir Wind Speed Gust Speed Precip Events Conditions
12:00 AM 78.8 °F - 73.4 °F 83% 29.86 in 5.6 mi East 1.2 mph - N/A   Scattered Clouds
12:30 AM 78.8 °F - 75.2 °F 89% 29.83 in 5.6 mi Variable 1.2 mph - N/A   Scattered Clouds
1:00 AM 80.6 °F 86.2 °F 75.2 °F 84% 29.83 in 5.6 mi Variable 2.3 mph - N/A   Scattered Clouds
7:00 AM 78.8 °F - 73.4 °F 83% 29.86 in 5.6 mi East 2.3 mph - N/A   Scattered Clouds
7:30 AM 78.8 °F - 73.4 °F 83% 29.89 in 5.6 mi Calm Calm - N/A   Scattered Clouds
8:00 AM 80.6 °F 85.4 °F 73.4 °F 79% 29.89 in 5.6 mi North 1.2 mph - N/A   Scattered Clouds
8:30 AM 80.6 °F 85.4 °F 73.4 °F 79% 29.89 in 5.6 mi Variable 2.3 mph - N/A   Scattered Clouds
9:00 AM 82.4 °F 88.2 °F 73.4 °F 74% 29.89 in 6.2 mi Variable 2.3 mph - N/A   Scattered Clouds
9:30 AM 82.4 °F 88.2 °F 73.4 °F 74% 29.89 in 6.2 mi Variable 2.3 mph - N/A   Scattered Clouds
10:00 AM 82.4 °F 88.2 °F 73.4 °F 74% 29.89 in 6.2 mi Variable 2.3 mph - N/A   Scattered Clouds
10:30 AM 84.2 °F 90.9 °F 73.4 °F 70% 29.89 in 6.2 mi Variable 3.5 mph - N/A   Scattered Clouds
11:00 AM 86.0 °F 93.4 °F 73.4 °F 66% 29.86 in 6.2 mi Variable 1.2 mph - N/A   Scattered Clouds
11:30 AM 86.0 °F 93.4 °F 73.4 °F 66% 29.83 in 6.2 mi Variable 1.2 mph - N/A   Scattered Clouds
12:00 PM 87.8 °F 97.6 °F 75.2 °F 66% 29.83 in 6.2 mi Variable 3.5 mph - N/A   Scattered Clouds
12:30 PM 87.8 °F 95.6 °F 73.4 °F 62% 29.80 in 6.2 mi Variable 1.2 mph - N/A   Scattered Clouds
1:00 PM 87.8 °F 95.6 °F 73.4 °F 62% 29.77 in 6.2 mi Variable 1.2 mph - N/A   Scattered Clouds
1:30 PM 87.8 °F 93.8 °F 71.6 °F 58% 29.77 in 6.2 mi Variable 2.3 mph - N/A   Scattered Clouds
2:30 PM 87.8 °F 93.8 °F 71.6 °F 58% 29.74 in 6.2 mi Variable 1.2 mph - N/A   Scattered Clouds
3:00 PM 89.6 °F 96.2 °F 71.6 °F 55% 29.74 in 6.2 mi Variable 3.5 mph - N/A   Partly Cloudy
3:30 PM 89.6 °F 94.7 °F 69.8 °F 52% 29.74 in 6.2 mi ENE 8.1 mph - N/A   Partly Cloudy
4:00 PM 89.6 °F 96.2 °F 71.6 °F 55% 29.74 in 6.2 mi ENE 6.9 mph - N/A   Scattered Clouds
4:30 PM 89.6 °F 94.7 °F 69.8 °F 52% 29.74 in 6.2 mi ENE 8.1 mph - N/A   Scattered Clouds
5:00 PM 86.0 °F 95.1 °F 75.2 °F 70% 29.74 in 6.2 mi South 4.6 mph - N/A   Partly Cloudy
5:30 PM 86.0 °F 95.1 °F 75.2 °F 70% 29.77 in 5.6 mi SSW 3.5 mph - N/A   Partly Cloudy
6:00 PM 82.4 °F 90.9 °F 77.0 °F 84% 29.77 in 5.6 mi Calm Calm - N/A   Partly Cloudy
6:30 PM 82.4 °F 90.9 °F 77.0 °F 84% 29.80 in 5.6 mi WNW 3.5 mph - N/A   Scattered Clouds
7:00 PM 82.4 °F 90.9 °F 77.0 °F 84% 29.80 in 5.6 mi NW 3.5 mph - N/A   Scattered Clouds
7:30 PM 82.4 °F 90.9 °F 77.0 °F 84% 29.83 in 5.6 mi NE 3.5 mph - N/A   Scattered Clouds
8:00 PM 82.4 °F 90.9 °F 77.0 °F 84% 29.83 in 5.6 mi NNE 3.5 mph - N/A   Scattered Clouds
8:30 PM 82.4 °F 90.9 °F 77.0 °F 84% 29.83 in 5.6 mi North 3.5 mph - N/A   Scattered Clouds
9:00 PM 80.6 °F 87.1 °F 77.0 °F 89% 29.83 in 5.6 mi North 2.3 mph - N/A   Scattered Clouds
9:30 PM 80.6 °F 87.1 °F 77.0 °F 89% 29.86 in 5.6 mi SSW 2.3 mph - N/A   Scattered Clouds
10:00 PM 82.4 °F 88.2 °F 73.4 °F 74% 29.86 in 5.6 mi ENE 8.1 mph - N/A   Scattered Clouds
10:30 PM 80.6 °F 84.6 °F 71.6 °F 74% 29.83 in 5.6 mi NNW 8.1 mph - N/A   Unknown
11:00 PM 77.0 °F - 71.6 °F 83% 29.83 in 5.6 mi NNE 4.6 mph - N/A   Unknown